EW6322 Weather Reports


time (UTC)temp
C
wind
direction
speed
KPH
gust
KPH
rain 1hr
cm
rain 24hr
cm
rain mn
cm
humidity
%
barometer
mb
20260506015328 9 37 9.7 24.1 0.00 0.00 0.00 83 1008.0
20260506013829 9 11 9.7 24.1 0.00 0.00 0.00 83 1007.7
20260506012329 9 23 8.0 17.7 0.00 0.00 0.00 83 1007.5
20260506010828 10 63 8.0 20.9 0.00 0.00 0.00 81 1007.4
20260506005329 10 70 11.3 29.0 0.00 0.00 0.00 80 1007.2
20260506003830 10 46 8.0 19.3 0.00 0.00 0.00 80 1006.7
20260506002329 10 18 11.3 24.1 0.00 0.00 0.00 79 1006.4
20260506000830 10 70 9.7 20.9 0.00 0.00 0.00 78 1006.3
20260505235328 10 13 9.7 20.9 0.00 0.00 0.00 78 1006.3
20260505233829 10 1 9.7 20.9 0.00 0.00 0.00 78 1005.9
20260505232329 10 59 9.7 25.7 0.00 0.00 0.00 78 1005.9
20260505231523 10 27 11.3 25.7 0.00 0.00 0.00 78 1006.4
20260505225329 11 60 9.7 22.5 0.00 0.00 0.00 78 1006.2
20260505223829 11 22 9.7 25.7 0.00 0.00 0.00 77 1005.9
20260505222328 11 15 9.7 19.3 0.00 0.00 0.00 77 1005.9
20260505220829 11 71 12.9 24.1 0.00 0.00 0.00 76 1005.6
20260505215329 11 76 12.9 27.4 0.00 0.00 0.00 77 1005.5
20260505213829 11 10 9.7 24.1 0.00 0.00 0.00 78 1005.2
20260505212329 11 34 11.3 29.0 0.00 0.00 0.00 78 1005.4
20260505210828 12 352 12.9 27.4 0.00 0.00 0.00 77 1004.9
20260505205330 12 36 12.9 27.4 0.00 0.00 0.00 77 1004.0
20260505203829 12 22 11.3 27.4 0.00 0.00 0.00 80 1004.4
20260505203018 11 49 9.7 22.5 0.00 0.00 0.00 80 1004.7
20260505200829 11 39 11.3 27.4 0.00 0.00 0.00 81 1004.9
20260505195329 11 25 12.9 27.4 0.00 0.00 0.00 82 1004.2
20260505193829 12 86 12.9 27.4 0.00 0.00 0.00 83 1004.2
20260505192328 12 70 11.3 32.2 0.00 0.00 0.00 82 1004.3
20260505190828 12 15 11.3 27.4 0.00 0.00 0.00 81 1004.3
20260505190024 13 33 11.3 30.6 0.00 0.00 0.00 79 1003.7
20260505183829 13 56 12.9 35.4 0.00 0.00 0.00 81 1004.1
20260505183023 13 11 9.7 27.4 0.00 0.00 0.00 81 1004.1
20260505180829 13 0 11.3 25.7 0.00 0.00 0.00 81 1003.5
20260505175329 13 15 8.0 24.1 0.00 0.00 0.00 83 1003.3
20260505173828 13 8 11.3 24.1 0.00 0.00 0.00 83 1003.0
20260505172329 13 40 12.9 27.4 0.00 0.00 0.00 84 1003.1
20260505170829 13 34 12.9 32.2 0.00 0.00 0.00 84 1002.9
20260505170026 13 41 12.9 29.0 0.00 0.00 0.00 84 1002.6
20260505163829 14 27 9.7 27.4 0.00 0.00 0.00 84 1002.4
20260505162329 15 13 8.0 29.0 0.00 0.00 0.00 83 1002.1
20260505160829 15 40 8.0 30.6 0.00 0.00 0.00 83 1001.6
20260505152329 19 75 9.7 29.0 0.00 0.00 0.00 75 1000.8
20260505150829 21 23 6.4 16.1 0.00 0.00 0.00 80 1000.6
20260505123829 20 335 4.8 17.7 0.00 0.00 0.00 80 999.2
20260505122328 20 268 8.0 16.1 0.00 0.00 0.00 80 998.5
20260505120829 20 226 6.4 16.1 0.00 0.00 0.00 79 998.3
20260505115329 20 224 11.3 24.1 0.00 0.00 0.00 79 998.0
20260505113829 20 221 12.9 25.7 0.00 0.00 0.00 78 997.7
20260505112329 20 225 11.3 19.3 0.00 0.00 0.00 78 997.4
20260505110828 21 212 11.3 24.1 0.00 0.00 0.00 77 997.4
20260505102115 21 228 11.3 20.9 0.00 0.00 0.00 77 997.2
20260505100939 21 262 11.3 29.0 0.00 0.00 0.00 77 997.4
20260505093828 21 200 11.3 24.1 0.00 0.00 0.00 77 997.1
20260505092328 21 205 11.3 24.1 0.00 0.00 0.00 77 997.3
20260505091521 21 211 11.3 22.5 0.00 0.00 0.00 76 997.4
20260505090025 21 186 12.9 27.4 0.00 0.00 0.00 76 997.6
20260505083829 21 229 11.3 27.4 0.00 0.00 0.00 77 997.6
20260505082330 21 208 9.7 24.1 0.00 0.00 0.00 77 997.7
20260505080828 21 238 11.3 29.0 0.00 0.00 0.00 76 997.9
20260505075330 21 224 9.7 25.7 0.00 0.00 0.00 76 998.0
20260505073828 21 215 9.7 24.1 0.00 0.00 0.00 77 998.2
20260505072330 21 222 9.7 27.4 0.00 0.00 0.00 77 998.2
20260505071519 21 217 9.7 19.3 0.00 0.00 0.00 77 998.5
20260505065330 21 214 9.7 22.5 0.00 0.00 0.00 77 998.8
20260505063828 21 188 9.7 29.0 0.00 0.00 0.00 76 998.8
20260505062330 21 224 11.3 27.4 0.00 0.00 0.00 75 998.9
20260505060828 22 176 11.3 20.9 0.00 0.00 0.00 75 999.1
20260505055330 22 193 9.7 22.5 0.00 0.00 0.00 75 999.2
20260505053828 22 210 8.0 25.7 0.00 0.00 0.00 75 999.3
20260505052329 22 197 8.0 25.7 0.00 0.00 0.00 74 999.5
20260505051518 22 244 8.0 19.3 0.00 0.00 0.00 74 999.6
20260505040828 22 180 8.0 25.7 0.00 0.00 0.00 73 1000.0
20260505040032 22 147 9.7 20.9 0.00 0.00 0.00 73 1000.1
20260505033829 22 210 6.4 14.5 0.00 0.00 0.00 72 1000.0
20260505032329 22 190 6.4 19.3 0.00 0.00 0.00 71 1000.0
20260505031526 23 181 8.0 22.5 0.00 0.00 0.00 70 1000.0
20260505025328 23 178 9.7 24.1 0.00 0.00 0.00 69 1000.0
20260505023829 23 215 8.0 19.3 0.00 0.00 0.00 69 1000.0
20260505022329 23 212 6.4 17.7 0.00 0.00 0.00 68 999.9
20260505020828 23 187 6.4 17.7 0.00 0.00 0.00 67 999.7